Time,TemperatureF,DewpointF,PressureIn,WindDirection,WindDirectionDegrees,WindSpeedMPH,WindSpeedGustMPH,Humidity,HourlyPrecipIn,Conditions,Clouds,dailyrainin,SoftwareType,DateUTC
2013-02-10 00:12:00,21.1,18.0,29.75,NNW,331,0.0,-999.0,88,-99.99,,,0.00,weatherlink.com 1.10,2013-02-10 07:12:00,
2013-02-10 00:27:00,21.2,18.0,29.76,NNW,331,1.0,-999.0,88,-99.99,,,0.00,weatherlink.com 1.10,2013-02-10 07:27:00,
2013-02-10 00:42:00,21.2,18.0,29.76,NNW,331,1.0,-999.0,88,-99.99,,,0.00,weatherlink.com 1.10,2013-02-10 07:42:00,
2013-02-10 00:57:00,21.0,18.0,29.76,NNW,331,2.0,-999.0,88,-99.99,,,0.00,weatherlink.com 1.10,2013-02-10 07:57:00,
2013-02-10 01:12:00,21.1,18.0,29.77,NNW,338,2.0,-999.0,87,-99.99,,,0.00,weatherlink.com 1.10,2013-02-10 08:12:00,
2013-02-10 01:27:00,20.8,17.0,29.77,NNW,348,3.0,-999.0,86,-99.99,,,0.00,weatherlink.com 1.10,2013-02-10 08:27:00,
2013-02-10 01:42:00,20.6,17.0,29.76,NNW,348,1.0,-999.0,86,-99.99,,,0.00,weatherlink.com 1.10,2013-02-10 08:42:00,
2013-02-10 01:57:00,20.4,17.0,29.77,North,351,2.0,-999.0,85,-99.99,,,0.00,weatherlink.com 1.10,2013-02-10 08:57:00,
2013-02-10 02:12:00,20.3,17.0,29.77,North,351,2.0,-999.0,85,-99.99,,,0.00,weatherlink.com 1.10,2013-02-10 09:12:00,
2013-02-10 02:27:00,20.2,16.0,29.78,North,351,2.0,-999.0,85,-99.99,,,0.00,weatherlink.com 1.10,2013-02-10 09:27:00,
2013-02-10 02:43:00,19.1,15.0,29.78,North,351,2.0,-999.0,82,-99.99,,,0.00,weatherlink.com 1.10,2013-02-10 09:43:00,
2013-02-10 02:57:00,18.7,14.0,29.79,North,351,0.0,-999.0,83,-99.99,,,0.00,weatherlink.com 1.10,2013-02-10 09:57:00,
2013-02-10 03:12:00,18.2,14.0,29.79,North,351,1.0,-999.0,83,-99.99,,,0.00,weatherlink.com 1.10,2013-02-10 10:12:00,
2013-02-10 03:27:00,18.0,14.0,29.79,North,351,0.0,-999.0,84,-99.99,,,0.00,weatherlink.com 1.10,2013-02-10 10:27:00,
2013-02-10 03:42:00,18.5,15.0,29.79,North,351,0.0,-999.0,84,-99.99,,,0.00,weatherlink.com 1.10,2013-02-10 10:42:00,
2013-02-10 03:57:00,18.6,14.0,29.79,North,351,2.0,-999.0,83,-99.99,,,0.00,weatherlink.com 1.10,2013-02-10 10:57:00,
2013-02-10 04:12:00,18.3,14.0,29.80,North,351,0.0,-999.0,84,-99.99,,,0.00,weatherlink.com 1.10,2013-02-10 11:12:00,
2013-02-10 04:27:00,17.9,14.0,29.80,North,351,0.0,-999.0,84,-99.99,,,0.00,weatherlink.com 1.10,2013-02-10 11:27:00,
2013-02-10 04:42:00,17.6,14.0,29.80,North,351,0.0,-999.0,84,-99.99,,,0.00,weatherlink.com 1.10,2013-02-10 11:42:00,
2013-02-10 04:57:00,17.1,13.0,29.81,North,351,0.0,-999.0,84,-99.99,,,0.00,weatherlink.com 1.10,2013-02-10 11:57:00,
2013-02-10 05:12:00,16.6,13.0,29.81,North,351,0.0,-999.0,85,-99.99,,,0.00,weatherlink.com 1.10,2013-02-10 12:12:00,
2013-02-10 05:27:00,16.2,13.0,29.82,North,351,0.0,-999.0,85,-99.99,,,0.00,weatherlink.com 1.10,2013-02-10 12:27:00,
2013-02-10 05:42:00,15.5,12.0,29.82,North,351,0.0,-999.0,85,-99.99,,,0.00,weatherlink.com 1.10,2013-02-10 12:42:00,
2013-02-10 05:57:00,15.5,12.0,29.83,North,351,0.0,-999.0,86,-99.99,,,0.00,weatherlink.com 1.10,2013-02-10 12:57:00,
2013-02-10 06:12:00,14.9,11.0,29.83,North,351,0.0,-999.0,85,-99.99,,,0.00,weatherlink.com 1.10,2013-02-10 13:12:00,
2013-02-10 06:27:00,14.8,12.0,29.84,North,351,0.0,-999.0,87,-99.99,,,0.00,weatherlink.com 1.10,2013-02-10 13:27:00,
2013-02-10 06:42:00,14.6,11.0,29.84,North,351,0.0,-999.0,87,-99.99,,,0.00,weatherlink.com 1.10,2013-02-10 13:42:00,
2013-02-10 06:57:00,14.6,11.0,29.84,North,351,0.0,-999.0,86,-99.99,,,0.00,weatherlink.com 1.10,2013-02-10 13:57:00,
2013-02-10 07:12:00,14.3,11.0,29.85,North,351,0.0,-999.0,86,-99.99,,,0.00,weatherlink.com 1.10,2013-02-10 14:12:00,
2013-02-10 07:27:00,13.9,10.0,29.86,North,351,0.0,-999.0,85,-99.99,,,0.00,weatherlink.com 1.10,2013-02-10 14:27:00,
2013-02-10 07:42:00,13.7,10.0,29.86,North,351,0.0,-999.0,86,-99.99,,,0.00,weatherlink.com 1.10,2013-02-10 14:42:00,
2013-02-10 07:57:00,14.2,11.0,29.87,North,351,0.0,-999.0,86,-99.99,,,0.00,weatherlink.com 1.10,2013-02-10 14:57:00,
2013-02-10 08:12:00,14.9,11.0,29.88,North,351,1.0,-999.0,85,-99.99,,,0.00,weatherlink.com 1.10,2013-02-10 15:12:00,
2013-02-10 08:27:00,16.0,12.0,29.89,North,351,1.0,-999.0,85,-99.99,,,0.00,weatherlink.com 1.10,2013-02-10 15:27:00,
2013-02-10 08:42:00,16.2,12.0,29.89,North,351,0.0,-999.0,83,-99.99,,,0.00,weatherlink.com 1.10,2013-02-10 15:42:00,
2013-02-10 08:57:00,16.4,12.0,29.90,North,351,1.0,-999.0,82,-99.99,,,0.00,weatherlink.com 1.10,2013-02-10 15:57:00,
2013-02-10 09:12:00,17.2,12.0,29.91,North,351,0.0,-999.0,81,-99.99,,,0.00,weatherlink.com 1.10,2013-02-10 16:12:00,
2013-02-10 09:28:00,18.1,12.0,29.91,North,351,0.0,-999.0,78,-99.99,,,0.00,weatherlink.com 1.10,2013-02-10 16:28:00,
2013-02-10 09:42:00,18.2,12.0,29.91,North,351,0.0,-999.0,77,-99.99,,,0.00,weatherlink.com 1.10,2013-02-10 16:42:00,
2013-02-10 09:57:00,18.9,12.0,29.92,North,351,1.0,-999.0,75,-99.99,,,0.00,weatherlink.com 1.10,2013-02-10 16:57:00,
2013-02-10 10:12:00,19.7,12.0,29.92,NNE,32,2.0,-999.0,71,-99.99,,,0.00,weatherlink.com 1.10,2013-02-10 17:12:00,
2013-02-10 10:27:00,20.4,11.0,29.92,NE,37,3.0,-999.0,68,-99.99,,,0.00,weatherlink.com 1.10,2013-02-10 17:27:00,
2013-02-10 10:42:00,21.2,12.0,29.93,NE,38,1.0,-999.0,68,-99.99,,,0.01,weatherlink.com 1.10,2013-02-10 17:42:00,
2013-02-10 10:57:00,21.2,12.0,29.93,NNW,327,6.0,-999.0,68,-99.99,,,0.01,weatherlink.com 1.10,2013-02-10 17:57:00,
2013-02-10 11:12:00,20.9,11.0,29.93,NNW,334,17.0,-999.0,65,-99.99,,,0.01,weatherlink.com 1.10,2013-02-10 18:12:00,
2013-02-10 11:28:00,20.7,12.0,29.93,NW,307,11.0,-999.0,69,-99.99,,,0.01,weatherlink.com 1.10,2013-02-10 18:28:00,
2013-02-10 11:44:00,21.2,12.0,29.93,NW,316,12.0,-999.0,68,-99.99,,,0.01,weatherlink.com 1.10,2013-02-10 18:44:00,
2013-02-10 11:59:00,21.8,11.0,29.93,NW,309,13.0,-999.0,62,-99.99,,,0.01,weatherlink.com 1.10,2013-02-10 18:59:00,
2013-02-10 12:13:00,22.2,11.0,29.93,NW,316,7.0,-999.0,61,-99.99,,,0.01,weatherlink.com 1.10,2013-02-10 19:13:00,
2013-02-10 12:27:00,22.5,10.0,29.92,NW,325,16.0,-999.0,60,-99.99,,,0.01,weatherlink.com 1.10,2013-02-10 19:27:00,
2013-02-10 12:43:00,22.6,10.0,29.91,NNW,329,11.0,-999.0,58,-99.99,,,0.01,weatherlink.com 1.10,2013-02-10 19:43:00,
2013-02-10 12:58:00,22.6,11.0,29.92,NW,307,13.0,-999.0,62,-99.99,,,0.01,weatherlink.com 1.10,2013-02-10 19:58:00,
2013-02-10 13:13:00,22.4,11.0,29.92,NW,312,10.0,-999.0,62,-99.99,,,0.01,weatherlink.com 1.10,2013-02-10 20:13:00,
2013-02-10 13:29:00,21.8,11.0,29.92,WNW,302,14.0,-999.0,62,-99.99,,,0.01,weatherlink.com 1.10,2013-02-10 20:29:00,
2013-02-10 13:43:00,22.0,11.0,29.91,NW,309,11.0,-999.0,62,-99.99,,,0.01,weatherlink.com 1.10,2013-02-10 20:43:00,
2013-02-10 13:59:00,21.8,10.0,29.91,NW,304,13.0,-999.0,60,-99.99,,,0.01,weatherlink.com 1.10,2013-02-10 20:59:00,
2013-02-10 14:14:00,21.8,10.0,29.91,WNW,300,17.0,-999.0,60,-99.99,,,0.01,weatherlink.com 1.10,2013-02-10 21:14:00,
2013-02-10 14:29:00,22.2,11.0,29.91,WNW,300,13.0,-999.0,62,-99.99,,,0.01,weatherlink.com 1.10,2013-02-10 21:29:00,
2013-02-10 14:43:00,22.5,10.0,29.92,NW,317,13.0,-999.0,58,-99.99,,,0.01,weatherlink.com 1.10,2013-02-10 21:43:00,
2013-02-10 14:59:00,22.4,10.0,29.92,NW,310,12.0,-999.0,60,-99.99,,,0.01,weatherlink.com 1.10,2013-02-10 21:59:00,
2013-02-10 15:13:00,21.6,10.0,29.93,NW,309,12.0,-999.0,61,-99.99,,,0.01,weatherlink.com 1.10,2013-02-10 22:13:00,
2013-02-10 15:27:00,22.0,10.0,29.94,NW,305,13.0,-999.0,60,-99.99,,,0.01,weatherlink.com 1.10,2013-02-10 22:27:00,
2013-02-10 15:43:00,21.5,10.0,29.94,NW,325,11.0,-999.0,61,-99.99,,,0.01,weatherlink.com 1.10,2013-02-10 22:43:00,
2013-02-10 15:58:00,21.3,8.0,29.95,NW,321,8.0,-999.0,58,-99.99,,,0.01,weatherlink.com 1.10,2013-02-10 22:58:00,
2013-02-10 16:14:00,21.1,8.0,29.95,NW,318,13.0,-999.0,57,-99.99,,,0.01,weatherlink.com 1.10,2013-02-10 23:14:00,
2013-02-10 16:29:00,20.9,8.0,29.96,NW,319,10.0,-999.0,58,-99.99,,,0.01,weatherlink.com 1.10,2013-02-10 23:29:00,
2013-02-10 16:43:00,20.8,8.0,29.96,NNW,331,16.0,-999.0,57,-99.99,,,0.01,weatherlink.com 1.10,2013-02-10 23:43:00,
2013-02-10 16:58:00,19.4,7.0,29.97,NW,312,11.0,-999.0,60,-99.99,,,0.01,weatherlink.com 1.10,2013-02-10 23:58:00,
2013-02-10 17:13:00,18.5,6.0,29.98,NNW,329,13.0,-999.0,59,-99.99,,,0.01,weatherlink.com 1.10,2013-02-11 00:13:00,
2013-02-10 17:28:00,18.9,6.0,29.98,NNW,332,12.0,-999.0,57,-99.99,,,0.01,weatherlink.com 1.10,2013-02-11 00:28:00,
2013-02-10 17:43:00,17.7,5.0,29.99,NNW,333,4.0,-999.0,58,-99.99,,,0.01,weatherlink.com 1.10,2013-02-11 00:43:00,
2013-02-10 17:59:00,15.4,4.0,30.00,NNW,344,3.0,-999.0,60,-99.99,,,0.01,weatherlink.com 1.10,2013-02-11 00:59:00,
2013-02-10 18:13:00,14.4,3.0,30.01,North,360,0.0,-999.0,61,-99.99,,,0.01,weatherlink.com 1.10,2013-02-11 01:13:00,
2013-02-10 18:27:00,14.6,3.0,30.02,East,86,1.0,-999.0,59,-99.99,,,0.01,weatherlink.com 1.10,2013-02-11 01:27:00,
2013-02-10 18:44:00,14.1,2.0,30.02,East,85,1.0,-999.0,58,-99.99,,,0.01,weatherlink.com 1.10,2013-02-11 01:44:00,
2013-02-10 18:58:00,14.2,1.0,30.04,NE,36,4.0,-999.0,57,-99.99,,,0.01,weatherlink.com 1.10,2013-02-11 01:58:00,
2013-02-10 19:13:00,13.2,1.0,30.04,NE,36,0.0,-999.0,58,-99.99,,,0.01,weatherlink.com 1.10,2013-02-11 02:13:00,
2013-02-10 19:28:00,12.3,0.0,30.05,NE,36,0.0,-999.0,59,-99.99,,,0.01,weatherlink.com 1.10,2013-02-11 02:28:00,
2013-02-10 19:43:00,10.4,-2.0,30.06,NE,36,0.0,-999.0,59,-99.99,,,0.01,weatherlink.com 1.10,2013-02-11 02:43:00,
2013-02-10 19:58:00,7.6,-2.0,30.07,NE,38,1.0,-999.0,66,-99.99,,,0.01,weatherlink.com 1.10,2013-02-11 02:58:00,
2013-02-10 20:14:00,7.1,-3.0,30.08,NE,39,0.0,-999.0,64,-99.99,,,0.01,weatherlink.com 1.10,2013-02-11 03:14:00,
2013-02-10 20:29:00,6.2,-2.0,30.09,NE,49,2.0,-999.0,68,-99.99,,,0.01,weatherlink.com 1.10,2013-02-11 03:29:00,
2013-02-10 20:43:00,7.1,-1.0,30.09,NE,51,1.0,-999.0,70,-99.99,,,0.01,weatherlink.com 1.10,2013-02-11 03:43:00,
2013-02-10 20:58:00,6.7,-1.0,30.11,ENE,65,1.0,-999.0,70,-99.99,,,0.01,weatherlink.com 1.10,2013-02-11 03:58:00,
2013-02-10 21:13:00,5.2,-2.0,30.11,ENE,70,2.0,-999.0,73,-99.99,,,0.01,weatherlink.com 1.10,2013-02-11 04:13:00,
2013-02-10 21:28:00,4.4,-2.0,30.12,ENE,77,1.0,-999.0,75,-99.99,,,0.01,weatherlink.com 1.10,2013-02-11 04:28:00,
2013-02-10 21:43:00,5.4,-2.0,30.12,SE,134,0.0,-999.0,73,-99.99,,,0.01,weatherlink.com 1.10,2013-02-11 04:43:00,
2013-02-10 21:58:00,4.8,-2.0,30.13,SE,134,0.0,-999.0,73,-99.99,,,0.01,weatherlink.com 1.10,2013-02-11 04:58:00,
2013-02-10 22:13:00,5.0,-2.0,30.13,SE,134,1.0,-999.0,73,-99.99,,,0.01,weatherlink.com 1.10,2013-02-11 05:13:00,
2013-02-10 22:28:00,4.1,-3.0,30.14,SE,134,1.0,-999.0,73,-99.99,,,0.01,weatherlink.com 1.10,2013-02-11 05:28:00,
2013-02-10 22:43:00,2.8,-4.0,30.14,SE,134,0.0,-999.0,73,-99.99,,,0.01,weatherlink.com 1.10,2013-02-11 05:43:00,
2013-02-10 22:58:00,2.8,-4.0,30.15,SE,135,0.0,-999.0,74,-99.99,,,0.01,weatherlink.com 1.10,2013-02-11 05:58:00,
2013-02-10 23:13:00,3.3,-3.0,30.14,SE,135,1.0,-999.0,75,-99.99,,,0.01,weatherlink.com 1.10,2013-02-11 06:13:00,
2013-02-10 23:28:00,1.1,-7.0,30.15,SE,134,0.0,-999.0,70,-99.99,,,0.01,weatherlink.com 1.10,2013-02-11 06:28:00,
2013-02-10 23:43:00,1.0,-6.0,30.15,SE,134,1.0,-999.0,74,-99.99,,,0.01,weatherlink.com 1.10,2013-02-11 06:43:00,
2013-02-10 23:58:00,-0.5,-8.0,30.16,SE,129,2.0,-999.0,72,-99.99,,,0.01,weatherlink.com 1.10,2013-02-11 06:58:00,